QPF
0.00 0.00 0.00 0.00 0.00 0.00 0.00 0.00 0.00 0.00 0.00 0.00 0.00 0.00 0.00 0.00 0.00 0.00 0.00 0.00 0.00 0.00 0.00 0.00 0.00 0.00 0.00 0.00 0.00 0.00 0.00 0.00 0.00 0.00 0.00 0.00 0.00 0.00 0.00 0.00 0.00 0.00 0.00 0.00
0.00 0.00 0.00 0.00 0.00 0.00 0.00 0.00 0.00 0.00 0.00 0.00 0.00 0.00 0.00 0.00 0.00 0.00 0.00 0.00 0.00 0.00 0.00 0.00 0.00 0.00 0.00 0.00 0.00 0.00 0.00 0.00 0.00 0.00 0.00 0.00 0.00 0.00 0.00 0.00 0.00 0.00 0.00 0.00
0.00 0.00 0.00 0.00 0.00 0.00 0.00 0.00 0.00 0.00 0.00 0.00 0.00 0.00 0.00 0.00 0.00 0.00 0.00 0.00 0.00 0.00 0.00 0.00 0.00 0.00 0.00 0.00 0.00 0.00 0.00 0.00 0.00 0.00 0.00 0.00 0.00 0.00 0.00 0.00 0.00 0.00 0.00 0.00
0.00 0.00 0.00 0.00 0.00 0.00 0.00 0.00 0.00 0.00 0.00 0.00 0.00 0.00 0.00 0.00 0.00 0.00 0.00 0.00 0.00 0.00 0.00 0.00 0.00 0.00 0.00 0.00 0.00 0.00 0.00 0.00 0.00 0.00 0.00 0.00 0.00 0.00 0.00 0.00 0.00 0.00 0.00 0.00
0.00 0.00 0.00 0.00 0.00 0.00 0.00 0.00 0.00 0.00 0.00 0.00 0.00 0.00 0.00 0.00 0.00 0.00 0.00 0.00 0.00 0.00 0.00 0.00 0.00 0.00 0.00 0.00 0.00 0.00 0.00 0.00 0.00 0.00 0.00 0.00 0.00 0.00 0.00 0.00 0.00 0.00 0.00 0.00
0.00 0.00 0.00 0.00 0.00 0.00 0.00 0.00 0.00 0.00 0.00 0.00 0.00 0.00 0.00 0.00 0.00 0.00 0.00 0.00 0.00 0.00 0.00 0.00 0.00 0.00 0.00 0.00 0.00 0.00 0.00 0.00 0.00 0.00 0.00 0.00 0.00 0.00 0.00 0.00 0.00 0.00 0.00 0.00
0.00 0.00 0.00 0.00 0.00 0.00 0.00 0.00 0.00 0.00 0.00 0.00 0.00 0.00 0.00 0.00 0.00 0.00 0.00 0.00 0.00 0.00 0.00 0.00 0.00 0.00 0.00 0.00 0.00 0.00 0.00 0.00 0.00 0.00 0.00 0.00 0.00 0.00 0.00 0.00 0.00 0.00 0.00 0.00
0.00 0.00 0.00 0.00 0.00 0.00 0.00 0.00 0.00 0.00 0.00 0.00 0.00 0.00 0.00 0.00 0.00 0.00 0.00 0.00 0.00 0.00 0.00 0.00 0.00 0.00 0.00 0.00 0.00 0.00 0.00 0.00 0.00 0.00 0.00 0.00 0.00 0.00 0.00 0.00 0.00 0.00 0.00 0.00
0.00 0.00 0.00 0.00 0.00 0.00 0.00 0.00 0.00 0.00 0.00 0.00 0.00 0.00 0.00 0.00 0.00 0.00 0.00 0.00 0.00 0.00 0.00 0.00 0.00 0.00 0.00 0.00 0.00 0.00 0.00 0.00 0.00 0.00 0.00 0.00 0.00 0.00 0.00 0.00 0.00 0.00 0.00 0.00
0.00 0.00 0.00 0.00 0.00 0.00 0.00 0.00 0.00 0.00 0.00 0.00 0.00 0.00 0.00 0.00 0.00 0.00 0.00 0.00 0.00 0.00 0.00 0.00 0.00 0.00 0.00 0.00 0.00 0.00 0.00 0.00 0.00 0.00 0.00 0.00 0.00 0.00 0.00 0.00 0.01 0.02 0.02 0.01
0.00 0.00 0.00 0.00 0.00 0.00 0.00 0.00 0.00 0.00 0.00 0.00 0.00 0.00 0.00 0.00 0.00 0.00 0.00 0.00 0.00 0.00 0.00 0.00 0.00 0.00 0.00 0.00 0.00 0.00 0.00 0.00 0.00 0.00 0.00 0.00 0.00 0.00 0.00 0.00 0.02 0.04 0.03 0.03
0.00 0.00 0.00 0.00 0.00 0.00 0.00 0.00 0.00 0.00 0.00 0.00 0.00 0.00 0.00 0.00 0.00 0.00 0.00 0.00 0.00 0.00 0.00 0.00 0.00 0.00 0.00 0.00 0.00 0.00 0.00 0.00 0.00 0.00 0.00 0.00 0.00 0.00 0.00 0.00 0.00 0.01 0.01 0.02
0.00 0.00 0.00 0.00 0.00 0.00 0.00 0.00 0.00 0.00 0.00 0.00 0.00 0.00 0.00 0.00 0.00 0.00 0.00 0.00 0.00 0.00 0.00 0.00 0.00 0.00 0.00 0.00 0.00 0.00 0.00 0.00 0.00 0.00 0.00 0.00 0.00 0.00 0.00 0.00 0.00 0.00 0.00 0.01
0.00 0.00 0.00 0.00 0.00 0.00 0.00 0.00 0.00 0.00 0.00 0.00 0.00 0.00 0.00 0.00 0.00 0.00 0.00 0.00 0.00 0.00 0.00 0.00 0.00 0.00 0.00 0.00 0.00 0.00 0.00 0.00 0.00 0.00 0.00 0.00 0.00 0.00 0.00 0.00 0.00 0.00 0.00 0.00
0.00 0.00 0.00 0.00 0.00 0.00 0.00 0.00 0.00 0.00 0.00 0.00 0.00 0.00 0.00 0.00 0.00 0.00 0.00 0.00 0.00 0.00 0.00 0.00 0.00 0.00 0.00 0.00 0.00 0.00 0.00 0.00 0.00 0.00 0.00 0.00 0.00 0.00 0.00 0.00 0.00 0.00 0.00 0.00
0.00 0.00 0.00 0.00 0.00 0.00 0.00 0.00 0.00 0.00 0.00 0.00 0.00 0.00 0.00 0.00 0.00 0.00 0.00 0.00 0.00 0.00 0.00 0.00 0.00 0.00 0.00 0.00 0.00 0.00 0.00 0.00 0.00 0.00 0.00 0.00 0.00 0.00 0.00 0.00 0.00 0.00 0.00 0.00
0.00 0.00 0.00 0.00 0.00 0.00 0.00 0.00 0.00 0.00 0.00 0.00 0.00 0.00 0.00 0.00 0.00 0.00 0.00 0.00 0.00 0.00 0.00 0.00 0.00 0.00 0.00 0.00 0.00 0.00 0.00 0.00 0.00 0.00 0.00 0.00 0.00 0.00 0.00 0.00 0.00 0.00 0.00 0.00
0.00 0.00 0.00 0.00 0.00 0.00 0.00 0.00 0.00 0.00 0.00 0.00 0.00 0.00 0.00 0.00 0.00 0.00 0.00 0.00 0.00 0.00 0.00 0.00 0.00 0.00 0.00 0.00 0.00 0.00 0.00 0.00 0.00 0.00 0.00 0.00 0.00 0.00 0.00 0.00 0.00 0.00 0.00 0.00
0.00 0.00 0.00 0.00 0.00 0.00 0.00 0.00 0.00 0.00 0.00 0.00 0.00 0.00 0.00 0.00 0.00 0.00 0.00 0.00 0.00 0.00 0.00 0.00 0.00 0.00 0.00 0.00 0.00 0.00 0.00 0.00 0.00 0.00 0.00 0.00 0.00 0.00 0.00 0.00 0.00 0.00 0.00 0.00
0.00 0.00 0.00 0.00 0.00 0.00 0.00 0.00 0.00 0.00 0.00 0.00 0.00 0.00 0.00 0.00 0.00 0.00 0.00 0.00 0.00 0.00 0.00 0.00 0.00 0.00 0.00 0.00 0.00 0.00 0.00 0.00 0.00 0.00 0.00 0.00 0.00 0.00 0.00 0.00 0.00 0.00 0.00 0.00
0.00 0.00 0.00 0.00 0.00 0.00 0.00 0.00 0.00 0.00 0.00 0.00 0.00 0.00 0.00 0.00 0.00 0.00 0.00 0.00 0.00 0.00 0.00 0.00 0.00 0.00 0.00 0.00 0.00 0.00 0.00 0.00 0.00 0.00 0.00 0.00 0.00 0.00 0.00 0.00 0.00 0.00 0.00 0.00
0.00 0.00 0.00 0.00 0.00 0.00 0.00 0.00 0.00 0.00 0.00 0.00 0.00 0.00 0.00 0.00 0.00 0.00 0.00 0.00 0.00 0.00 0.00 0.00 0.00 0.00 0.00 0.00 0.00 0.00 0.00 0.00 0.00 0.00 0.00 0.00 0.00 0.00 0.00 0.00 0.00 0.00 0.00 0.00
0.00 0.00 0.00 0.00 0.00 0.00 0.00 0.00 0.00 0.00 0.00 0.00 0.00 0.00 0.00 0.00 0.00 0.00 0.00 0.00 0.00 0.00 0.00 0.00 0.00 0.00 0.00 0.00 0.00 0.00 0.00 0.00 0.00 0.00 0.00 0.00 0.00 0.00 0.00 0.00 0.00 0.00 0.00 0.00
0.00 0.00 0.00 0.00 0.00 0.00 0.00 0.00 0.00 0.00 0.00 0.00 0.00 0.00 0.00 0.00 0.00 0.00 0.00 0.00 0.00 0.00 0.00 0.00 0.00 0.00 0.00 0.00 0.00 0.00 0.00 0.00 0.00 0.00 0.00 0.00 0.00 0.00 0.00 0.00 0.00 0.00 0.00 0.00
0.00 0.00 0.00 0.00 0.00 0.00 0.00 0.00 0.00 0.00 0.00 0.00 0.00 0.00 0.00 0.00 0.00 0.00 0.00 0.00 0.00 0.00 0.00 0.00 0.00 0.00 0.00 0.00 0.00 0.00 0.00 0.00 0.00 0.00 0.00 0.00 0.00 0.00 0.00 0.00 0.00 0.00 0.00 0.00
0.00 0.00 0.01 0.01 0.01 0.01 0.00 0.00 0.00 0.00 0.00 0.00 0.00 0.00 0.00 0.00 0.00 0.00 0.00 0.00 0.00 0.00 0.00 0.00 0.00 0.00 0.00 0.00 0.00 0.00 0.00 0.00 0.00 0.00 0.00 0.00 0.00 0.00 0.00 0.00 0.00 0.00 0.00 0.00
0.01 0.01 0.01 0.01 0.02 0.02 0.01 0.01 0.01 0.01 0.01 0.01 0.00 0.00 0.00 0.00 0.00 0.00 0.00 0.00 0.00 0.00 0.00 0.00 0.00 0.00 0.00 0.00 0.00 0.00 0.00 0.00 0.00 0.00 0.00 0.00 0.00 0.00 0.00 0.00 0.00 0.00 0.00 0.00
MSLP
1025.60 1025.46 1025.32 1025.16 1024.94 1024.59 1024.10 1023.45 1022.66 1021.78 1020.89 1020.09 1019.48 1019.15 1019.17 1019.57 1020.31 1021.37 1022.66 1024.08 1025.52 1026.90 1028.14 1029.21 1030.09 1030.78 1031.31 1031.68 1031.94 1032.09 1032.15 1032.11 1031.97 1031.72 1031.36 1030.90 1030.36 1029.75 1029.10 1028.43 1027.75 1027.08 1026.42 1025.78
1025.49 1025.18 1024.85 1024.49 1024.08 1023.58 1022.99 1022.30 1021.52 1020.71 1019.92 1019.24 1018.75 1018.51 1018.59 1019.00 1019.73 1020.73 1021.95 1023.30 1024.69 1026.04 1027.30 1028.41 1029.36 1030.14 1030.76 1031.23 1031.56 1031.77 1031.86 1031.84 1031.70 1031.45 1031.08 1030.60 1030.04 1029.41 1028.74 1028.04 1027.33 1026.63 1025.95 1025.29
1025.27 1024.80 1024.28 1023.73 1023.13 1022.48 1021.78 1021.05 1020.30 1019.57 1018.90 1018.36 1018.02 1017.91 1018.08 1018.53 1019.25 1020.22 1021.37 1022.65 1023.97 1025.28 1026.53 1027.66 1028.65 1029.50 1030.19 1030.73 1031.12 1031.38 1031.50 1031.50 1031.37 1031.11 1030.73 1030.25 1029.68 1029.04 1028.35 1027.62 1026.88 1026.15 1025.42 1024.72
1024.89 1024.29 1023.61 1022.88 1022.12 1021.33 1020.55 1019.79 1019.08 1018.44 1017.92 1017.55 1017.37 1017.41 1017.69 1018.20 1018.95 1019.89 1020.98 1022.18 1023.44 1024.69 1025.89 1027.01 1028.01 1028.89 1029.62 1030.20 1030.63 1030.92 1031.07 1031.07 1030.95 1030.69 1030.33 1029.85 1029.29 1028.65 1027.95 1027.21 1026.44 1025.66 1024.89 1024.15
1024.32 1023.62 1022.83 1021.97 1021.08 1020.20 1019.36 1018.60 1017.94 1017.41 1017.03 1016.83 1016.83 1017.03 1017.43 1018.03 1018.80 1019.73 1020.78 1021.92 1023.09 1024.27 1025.41 1026.49 1027.47 1028.34 1029.07 1029.66 1030.11 1030.40 1030.55 1030.56 1030.44 1030.20 1029.85 1029.39 1028.85 1028.23 1027.54 1026.81 1026.03 1025.22 1024.41 1023.62
1023.54 1022.79 1021.93 1020.99 1020.03 1019.09 1018.24 1017.50 1016.90 1016.48 1016.25 1016.22 1016.38 1016.74 1017.27 1017.95 1018.77 1019.70 1020.71 1021.78 1022.88 1023.98 1025.05 1026.07 1027.01 1027.84 1028.56 1029.13 1029.56 1029.85 1029.99 1029.99 1029.87 1029.64 1029.30 1028.88 1028.37 1027.79 1027.14 1026.43 1025.66 1024.85 1024.02 1023.19
1022.53 1021.78 1020.90 1019.94 1018.96 1018.02 1017.18 1016.48 1015.97 1015.66 1015.56 1015.68 1016.00 1016.49 1017.13 1017.89 1018.75 1019.68 1020.66 1021.68 1022.71 1023.74 1024.74 1025.70 1026.58 1027.37 1028.05 1028.59 1029.00 1029.26 1029.38 1029.37 1029.25 1029.02 1028.71 1028.32 1027.86 1027.33 1026.73 1026.07 1025.34 1024.55 1023.73 1022.89
1021.31 1020.58 1019.73 1018.80 1017.85 1016.95 1016.16 1015.53 1015.10 1014.89 1014.91 1015.16 1015.60 1016.20 1016.93 1017.75 1018.64 1019.58 1020.54 1021.51 1022.49 1023.45 1024.39 1025.29 1026.13 1026.87 1027.52 1028.03 1028.41 1028.64 1028.75 1028.73 1028.60 1028.39 1028.10 1027.75 1027.34 1026.87 1026.33 1025.73 1025.06 1024.33 1023.54 1022.72
1019.89 1019.22 1018.44 1017.57 1016.69 1015.86 1015.14 1014.59 1014.25 1014.13 1014.25 1014.59 1015.12 1015.80 1016.59 1017.45 1018.36 1019.29 1020.23 1021.17 1022.10 1023.02 1023.92 1024.77 1025.58 1026.30 1026.92 1027.41 1027.78 1028.01 1028.10 1028.08 1027.96 1027.75 1027.49 1027.17 1026.81 1026.41 1025.94 1025.42 1024.82 1024.15 1023.43 1022.66
1018.31 1017.71 1017.01 1016.24 1015.46 1014.73 1014.10 1013.64 1013.38 1013.34 1013.53 1013.93 1014.52 1015.24 1016.06 1016.94 1017.85 1018.77 1019.69 1020.60 1021.50 1022.39 1023.26 1024.09 1024.89 1025.60 1026.23 1026.73 1027.10 1027.34 1027.45 1027.44 1027.33 1027.15 1026.91 1026.63 1026.31 1025.96 1025.57 1025.12 1024.61 1024.02 1023.37 1022.68
1016.62 1016.09 1015.49 1014.83 1014.16 1013.53 1013.01 1012.64 1012.46 1012.49 1012.74 1013.18 1013.79 1014.53 1015.35 1016.22 1017.12 1018.02 1018.91 1019.79 1020.67 1021.54 1022.40 1023.24 1024.04 1024.77 1025.43 1025.97 1026.37 1026.65 1026.80 1026.82 1026.74 1026.59 1026.38 1026.13 1025.86 1025.56 1025.22 1024.85 1024.41 1023.92 1023.36 1022.75
1014.86 1014.40 1013.89 1013.34 1012.79 1012.29 1011.87 1011.59 1011.49 1011.58 1011.86 1012.32 1012.94 1013.68 1014.49 1015.34 1016.21 1017.08 1017.95 1018.81 1019.66 1020.52 1021.38 1022.23 1023.05 1023.83 1024.53 1025.13 1025.60 1025.94 1026.14 1026.22 1026.20 1026.09 1025.91 1025.70 1025.46 1025.20 1024.92 1024.60 1024.24 1023.83 1023.36 1022.83
1013.07 1012.68 1012.26 1011.82 1011.39 1011.00 1010.69 1010.50 1010.46 1010.60 1010.91 1011.39 1012.01 1012.73 1013.53 1014.36 1015.20 1016.04 1016.88 1017.72 1018.55 1019.40 1020.26 1021.13 1021.98 1022.80 1023.57 1024.23 1024.79 1025.21 1025.50 1025.65 1025.69 1025.64 1025.51 1025.33 1025.13 1024.90 1024.66 1024.39 1024.09 1023.75 1023.35 1022.91
1011.31 1010.97 1010.64 1010.30 1009.97 1009.69 1009.47 1009.36 1009.38 1009.56 1009.90 1010.39 1011.01 1011.73 1012.51 1013.32 1014.14 1014.96 1015.78 1016.59 1017.42 1018.26 1019.12 1020.00 1020.88 1021.75 1022.57 1023.31 1023.96 1024.47 1024.85 1025.10 1025.21 1025.22 1025.15 1025.01 1024.84 1024.64 1024.43 1024.20 1023.95 1023.66 1023.34 1022.97
1009.61 1009.34 1009.08 1008.82 1008.58 1008.37 1008.23 1008.18 1008.25 1008.47 1008.83 1009.33 1009.95 1010.67 1011.45 1012.25 1013.07 1013.88 1014.68 1015.49 1016.30 1017.13 1017.99 1018.88 1019.79 1020.69 1021.57 1022.38 1023.11 1023.72 1024.20 1024.53 1024.74 1024.82 1024.80 1024.71 1024.57 1024.40 1024.21 1024.01 1023.80 1023.56 1023.30 1022.99
1008.04 1007.81 1007.61 1007.42 1007.24 1007.09 1006.99 1006.97 1007.07 1007.31 1007.68 1008.19 1008.83 1009.55 1010.33 1011.15 1011.97 1012.79 1013.60 1014.40 1015.21 1016.04 1016.90 1017.80 1018.72 1019.65 1020.57 1021.45 1022.25 1022.95 1023.51 1023.94 1024.23 1024.39 1024.43 1024.39 1024.29 1024.14 1023.98 1023.80 1023.62 1023.43 1023.22 1022.97
1006.65 1006.47 1006.31 1006.15 1006.00 1005.86 1005.77 1005.76 1005.86 1006.09 1006.46 1006.97 1007.61 1008.35 1009.15 1009.98 1010.82 1011.66 1012.49 1013.31 1014.13 1014.97 1015.83 1016.73 1017.67 1018.62 1019.58 1020.51 1021.37 1022.14 1022.79 1023.30 1023.67 1023.90 1024.01 1024.01 1023.95 1023.84 1023.70 1023.56 1023.41 1023.26 1023.10 1022.91
1005.50 1005.35 1005.21 1005.05 1004.89 1004.73 1004.62 1004.57 1004.64 1004.84 1005.19 1005.68 1006.31 1007.05 1007.86 1008.72 1009.59 1010.46 1011.31 1012.15 1013.00 1013.85 1014.72 1015.64 1016.59 1017.57 1018.55 1019.52 1020.44 1021.27 1022.00 1022.59 1023.03 1023.33 1023.50 1023.57 1023.54 1023.47 1023.36 1023.25 1023.14 1023.03 1022.92 1022.80
1004.65 1004.51 1004.36 1004.18 1003.97 1003.75 1003.57 1003.46 1003.46 1003.60 1003.90 1004.35 1004.96 1005.68 1006.49 1007.36 1008.25 1009.15 1010.03 1010.90 1011.77 1012.64 1013.54 1014.47 1015.45 1016.45 1017.47 1018.48 1019.45 1020.34 1021.13 1021.79 1022.30 1022.68 1022.91 1023.02 1023.05 1023.02 1022.95 1022.88 1022.81 1022.75 1022.69 1022.63
1004.11 1003.97 1003.78 1003.54 1003.26 1002.96 1002.69 1002.49 1002.40 1002.46 1002.68 1003.07 1003.62 1004.31 1005.10 1005.95 1006.84 1007.75 1008.65 1009.54 1010.43 1011.33 1012.25 1013.21 1014.21 1015.25 1016.30 1017.36 1018.38 1019.33 1020.18 1020.91 1021.49 1021.93 1022.23 1022.41 1022.49 1022.50 1022.48 1022.45 1022.43 1022.41 1022.41 1022.41
1003.85 1003.68 1003.45 1003.13 1002.77 1002.38 1002.01 1001.72 1001.53 1001.49 1001.62 1001.93 1002.41 1003.03 1003.76 1004.57 1005.43 1006.32 1007.21 1008.10 1009.00 1009.92 1010.87 1011.85 1012.89 1013.96 1015.06 1016.16 1017.23 1018.25 1019.16 1019.96 1020.61 1021.12 1021.49 1021.73 1021.87 1021.94 1021.97 1021.99 1022.02 1022.06 1022.11 1022.16
1003.80 1003.59 1003.29 1002.91 1002.46 1001.99 1001.54 1001.16 1000.89 1000.77 1000.81 1001.03 1001.42 1001.95 1002.60 1003.33 1004.12 1004.95 1005.80 1006.66 1007.55 1008.47 1009.43 1010.44 1011.50 1012.61 1013.76 1014.91 1016.04 1017.11 1018.10 1018.96 1019.69 1020.27 1020.71 1021.02 1021.22 1021.36 1021.45 1021.52 1021.60 1021.69 1021.79 1021.90
1003.81 1003.55 1003.20 1002.76 1002.27 1001.75 1001.25 1000.82 1000.50 1000.32 1000.29 1000.43 1000.72 1001.15 1001.69 1002.32 1003.01 1003.74 1004.51 1005.32 1006.16 1007.05 1008.00 1009.02 1010.10 1011.25 1012.43 1013.64 1014.82 1015.96 1017.00 1017.94 1018.74 1019.39 1019.90 1020.29 1020.56 1020.76 1020.92 1021.05 1021.18 1021.32 1021.47 1021.62
1003.75 1003.44 1003.05 1002.58 1002.07 1001.55 1001.06 1000.64 1000.31 1000.11 1000.04 1000.12 1000.33 1000.66 1001.09 1001.59 1002.15 1002.77 1003.43 1004.14 1004.91 1005.75 1006.67 1007.67 1008.76 1009.92 1011.14 1012.38 1013.61 1014.80 1015.91 1016.91 1017.77 1018.50 1019.08 1019.54 1019.89 1020.16 1020.38 1020.58 1020.77 1020.96 1021.15 1021.33
1003.44 1003.10 1002.69 1002.23 1001.76 1001.29 1000.86 1000.50 1000.22 1000.05 1000.00 1000.05 1000.21 1000.45 1000.77 1001.14 1001.57 1002.05 1002.58 1003.18 1003.86 1004.62 1005.49 1006.46 1007.53 1008.69 1009.92 1011.19 1012.45 1013.68 1014.83 1015.88 1016.81 1017.59 1018.24 1018.77 1019.19 1019.54 1019.83 1020.09 1020.33 1020.57 1020.81 1021.03
1002.77 1002.40 1002.01 1001.60 1001.20 1000.84 1000.53 1000.28 1000.11 1000.03 1000.02 1000.09 1000.23 1000.41 1000.64 1000.91 1001.21 1001.56 1001.97 1002.45 1003.02 1003.70 1004.50 1005.42 1006.46 1007.60 1008.82 1010.09 1011.36 1012.61 1013.78 1014.87 1015.83 1016.67 1017.37 1017.96 1018.45 1018.87 1019.23 1019.55 1019.86 1020.15 1020.43 1020.68
1001.67 1001.29 1000.94 1000.61 1000.33 1000.10 999.95 999.86 999.84 999.88 999.97 1000.09 1000.24 1000.41 1000.58 1000.77 1000.97 1001.21 1001.51 1001.89 1002.37 1002.97 1003.70 1004.56 1005.56 1006.66 1007.85 1009.10 1010.36 1011.60 1012.78 1013.87 1014.85 1015.72 1016.46 1017.10 1017.65 1018.13 1018.55 1018.94 1019.31 1019.66 1019.99 1020.28
Thickness
5658 5652 5648 5650 5645 5631 5634 5644 5643 5657 5652 5663 5667 5659 5645 5627 5606 5579 5557 5537 5517 5498 5478 5456 5435 5416 5398 5379 5361 5343 5326 5310 5293 5277 5262 5250 5239 5229 5218 5207 5194 5182 5171 5159
5647 5642 5636 5636 5643 5639 5634 5637 5640 5643 5648 5666 5664 5650 5634 5621 5601 5577 5560 5540 5521 5501 5479 5457 5437 5418 5399 5380 5361 5343 5326 5309 5292 5277 5262 5251 5241 5232 5221 5210 5198 5186 5174 5164
5651 5640 5636 5654 5669 5647 5642 5645 5646 5646 5661 5670 5653 5641 5633 5623 5602 5584 5567 5546 5525 5504 5482 5460 5439 5419 5399 5380 5361 5343 5326 5309 5293 5277 5264 5253 5244 5235 5225 5215 5204 5191 5181 5172
5640 5642 5640 5691 5670 5662 5653 5655 5652 5657 5664 5663 5654 5642 5629 5621 5609 5591 5571 5550 5529 5507 5484 5462 5439 5418 5399 5380 5361 5345 5328 5311 5295 5279 5266 5255 5247 5238 5229 5220 5209 5199 5189 5180
5623 5636 5658 5680 5661 5652 5649 5662 5668 5656 5659 5659 5635 5625 5634 5623 5607 5595 5575 5553 5532 5509 5485 5462 5439 5418 5399 5381 5364 5347 5331 5315 5299 5283 5270 5259 5250 5243 5235 5225 5216 5207 5198 5188
5607 5620 5641 5685 5664 5653 5652 5658 5678 5662 5659 5653 5624 5635 5647 5623 5602 5587 5570 5549 5528 5505 5483 5462 5440 5419 5400 5385 5369 5352 5336 5319 5303 5288 5275 5265 5256 5247 5238 5230 5222 5214 5205 5196
5605 5611 5646 5670 5646 5643 5648 5670 5677 5664 5658 5646 5631 5640 5630 5609 5594 5579 5562 5542 5522 5502 5483 5464 5442 5421 5403 5388 5373 5357 5339 5323 5308 5294 5281 5270 5260 5251 5243 5234 5227 5219 5211 5205
5608 5607 5638 5648 5639 5648 5671 5674 5667 5660 5654 5644 5640 5630 5609 5599 5584 5570 5554 5536 5519 5502 5484 5463 5443 5423 5407 5392 5377 5359 5342 5327 5314 5300 5287 5274 5265 5256 5248 5240 5233 5227 5220 5214
5629 5648 5661 5650 5657 5661 5657 5658 5658 5652 5648 5641 5633 5626 5608 5592 5578 5565 5551 5535 5518 5502 5483 5464 5445 5427 5411 5396 5378 5361 5346 5332 5319 5306 5293 5281 5270 5261 5254 5246 5238 5233 5228 5221
5623 5646 5654 5648 5650 5651 5648 5648 5653 5648 5642 5635 5628 5623 5608 5591 5576 5563 5550 5535 5518 5502 5485 5467 5448 5429 5414 5397 5379 5364 5350 5337 5324 5311 5299 5287 5276 5266 5257 5250 5242 5238 5233 5225
5626 5646 5645 5653 5651 5652 5651 5649 5646 5644 5638 5631 5624 5618 5605 5590 5576 5564 5550 5535 5519 5505 5490 5473 5452 5433 5415 5398 5381 5367 5354 5341 5327 5314 5303 5291 5281 5270 5261 5252 5245 5239 5233 5226
5644 5653 5645 5659 5660 5653 5648 5648 5647 5642 5638 5629 5618 5614 5602 5589 5578 5564 5550 5536 5520 5507 5493 5476 5456 5437 5419 5401 5385 5371 5357 5345 5332 5319 5306 5293 5283 5274 5265 5255 5248 5240 5233 5227
5653 5651 5644 5653 5651 5645 5644 5649 5647 5640 5636 5630 5617 5607 5599 5588 5576 5563 5550 5537 5524 5511 5496 5478 5459 5442 5424 5406 5389 5374 5361 5349 5336 5323 5310 5297 5285 5275 5267 5259 5251 5244 5237 5231
5639 5629 5623 5634 5639 5643 5641 5641 5636 5631 5627 5621 5613 5601 5593 5583 5573 5561 5551 5540 5527 5512 5496 5479 5462 5446 5428 5410 5393 5378 5364 5351 5339 5327 5314 5302 5289 5279 5270 5262 5256 5250 5242 5235
5628 5617 5615 5627 5633 5633 5630 5624 5619 5621 5618 5613 5604 5595 5586 5579 5572 5563 5551 5537 5523 5510 5496 5481 5466 5450 5431 5414 5397 5382 5368 5356 5343 5331 5318 5306 5293 5282 5274 5265 5258 5252 5246 5240
5612 5606 5605 5608 5617 5627 5629 5625 5622 5630 5628 5617 5603 5595 5587 5580 5571 5559 5547 5535 5524 5514 5499 5484 5470 5455 5435 5418 5402 5386 5372 5359 5347 5335 5323 5310 5298 5287 5277 5269 5261 5256 5250 5243
5585 5592 5597 5600 5611 5621 5629 5632 5632 5635 5632 5621 5609 5594 5581 5571 5563 5555 5545 5535 5526 5517 5503 5488 5473 5456 5438 5421 5406 5391 5376 5363 5350 5338 5326 5314 5302 5291 5280 5271 5264 5258 5252 5245
5587 5594 5600 5601 5606 5613 5623 5628 5626 5624 5619 5612 5597 5583 5574 5570 5567 5558 5545 5532 5521 5512 5502 5489 5474 5456 5440 5424 5409 5394 5379 5366 5353 5341 5329 5317 5306 5295 5283 5273 5266 5260 5254 5248
5584 5586 5590 5591 5595 5598 5605 5610 5608 5604 5599 5591 5583 5578 5573 5569 5565 5555 5541 5529 5522 5513 5502 5489 5474 5457 5442 5427 5411 5396 5382 5368 5355 5343 5332 5320 5309 5298 5287 5277 5269 5262 5256 5250
5568 5570 5573 5574 5575 5574 5579 5584 5584 5585 5583 5577 5573 5570 5566 5562 5555 5546 5536 5531 5531 5526 5508 5489 5474 5458 5443 5428 5413 5398 5384 5371 5359 5347 5335 5324 5313 5302 5291 5280 5271 5263 5257 5252
5550 5550 5550 5552 5557 5561 5565 5569 5570 5574 5571 5565 5564 5565 5563 5557 5548 5541 5533 5530 5525 5515 5504 5489 5475 5460 5445 5430 5415 5400 5386 5373 5361 5350 5339 5328 5317 5305 5294 5283 5273 5265 5258 5253
5535 5538 5541 5543 5545 5549 5551 5550 5552 5555 5555 5552 5551 5551 5549 5546 5540 5536 5534 5535 5526 5511 5501 5488 5476 5462 5448 5433 5418 5402 5388 5376 5364 5352 5342 5331 5320 5309 5298 5287 5276 5267 5260 5254
5525 5526 5526 5527 5528 5531 5532 5532 5532 5533 5536 5537 5536 5535 5536 5537 5534 5531 5530 5526 5521 5509 5500 5489 5477 5464 5449 5433 5419 5404 5390 5378 5366 5355 5345 5334 5323 5312 5301 5289 5279 5270 5262 5255
5506 5506 5505 5504 5504 5507 5512 5518 5512 5512 5514 5518 5520 5519 5518 5519 5521 5522 5525 5521 5516 5504 5496 5487 5476 5463 5448 5434 5420 5405 5392 5380 5369 5358 5347 5336 5325 5314 5303 5292 5281 5272 5264 5256
5482 5480 5480 5481 5485 5495 5497 5494 5492 5492 5493 5498 5501 5502 5502 5505 5507 5507 5509 5511 5509 5499 5491 5482 5472 5461 5448 5435 5421 5408 5395 5383 5372 5360 5349 5339 5328 5317 5306 5294 5284 5274 5266 5259
5463 5464 5465 5463 5465 5470 5473 5473 5476 5479 5479 5481 5484 5485 5487 5489 5491 5493 5494 5496 5496 5491 5484 5476 5467 5457 5446 5434 5421 5408 5396 5384 5372 5361 5351 5341 5331 5320 5309 5298 5286 5277 5268 5261
5446 5444 5442 5446 5450 5451 5451 5453 5457 5463 5465 5468 5470 5472 5473 5475 5477 5480 5481 5483 5483 5481 5475 5470 5465 5457 5445 5432 5419 5407 5395 5384 5374 5364 5352 5342 5333 5322 5312 5300 5290 5279 5270 5263